Location: *
(28.2600°S, 63.4530°W)
Time: 13:09:39
(UTC+00:00)

Daily predictions for brighter satellites

Satellite Brightness Start Highest point End
(mag) Time Altitude Azimuth Time Altitude Azimuth Time Altitude Azimuth
Cosmos 1605 Rocket 4.5 22:39:31 10° SSE 22:45:30 41° E 22:51:19 10° NNE
Meteor 2-15 Rocket 4.5 22:40:16 10° N 22:46:24 78° E 22:52:37 10° S
Cosmos 2360 4.3 22:40:56 10° N 22:46:33 61° ENE 22:52:14 10° SSE
Cosmos 2227 Rocket 2.4 22:42:47 10° SSW 22:48:29 82° WNW 22:54:07 10° NNE
GPS 2-04 Rocket1 2.8 22:45:00 10° WSW 22:49:07 85° NNW 22:53:21 10° ENE
Cosmos 1703 4.0 22:46:31 10° NNE 22:49:58 31° E 22:53:29 10° SSE
ALOS 3.1 22:46:31 10° SE 22:50:33 28° E 22:54:34 10° NNE
Cosmos 1408 Rocket 4.0 22:46:06 10° NNW 22:50:34 71° W 22:55:04 10° S
Cosmos 2098 Rocket 2.9 22:49:12 10° SSW 22:52:05 56° W 22:55:02 10° N
Aurora 2 Rocket 2.7 22:48:39 10° WNW 22:52:16 56° N 22:57:12 10° ENE
OAO 2 Rocket 3.6 22:48:31 10° WSW 22:53:49 69° SSE 22:59:06 10° ENE
MONITOR-E 4.2 22:51:32 10° SSE 22:54:38 57° E 22:57:41 10° N
SL-16 R/B 3.1 22:56:11 10° NNE 23:00:50 27° ENE 23:05:32 10° SE
ATLAS CENTAUR R/B 0.1 22:59:14 10° NNW 23:00:55 57° NE 23:03:12 10° SE
Star 37E S/N 40062 3.7 22:58:56 10° W 23:01:19 76° S 23:07:46 10° E
Cosmos 1727 Rocket 4.0 22:55:58 10° N 23:02:10 65° E 23:08:24 10° SSE
Cosmos 1400 Rocket 3.0 22:58:47 10° NNE 23:02:32 47° E 23:06:19 10° SSE
Cosmos 1339 Rocket 4.4 22:57:11 10° N 23:03:17 69° E 23:09:23 10° SSE
Shenzhou-11 Module 3.4 23:00:38 10° WSW 23:03:26 33° NW 23:06:14 10° NNE
Cosmos 1455 3.7 23:04:21 10° SSE 23:07:08 18° ESE 23:08:47 15° ENE
Cosmos 1300 3.4 23:06:37 10° SSW 23:10:27 59° W 23:14:14 10° N
Iridium 2 4.1 23:10:19 10° SSE 23:13:57 40° E 23:17:31 10° NNE
ATLAS 2AS CENTAUR R/B 3.7 23:09:30 10° NW 23:15:42 46° WSW 23:21:34 10° SSE
Cosmos 2056 Rocket 3.6 23:15:17 10° N 23:20:12 47° ENE 23:25:08 10° SSE
Iridium 43 3.9 23:19:05 10° SSE 23:21:20 39° E 23:22:04 30° NE
Cosmos 1151 Rocket 3.2 23:20:55 10° S 23:25:08 48° E 23:28:40 14° NNE
Cosmos 1607 3.8 23:20:06 10° SSW 23:26:11 72° ESE 23:31:25 14° NNE
Cosmos 2297 Rocket 3.4 23:21:13 10° SW 23:26:34 43° WNW 23:31:53 10° N
Cosmos 1515 Rocket 3.5 23:23:49 10° S 23:28:20 68° E 23:32:45 10° NNE
NOSS 3-4 (A) 4.2 23:23:29 10° N 23:30:57 49° ENE 23:38:26 10° SE
NOSS 3-4 (C) 4.2 23:23:37 10° N 23:31:04 49° ENE 23:38:32 10° SE
Meteor 1-27 4.1 23:26:18 10° S 23:31:55 75° E 23:37:31 10° NNE
SJ-6B 3.6 23:28:47 10° SE 23:32:19 29° E 23:32:37 28° ENE
Cosmos 2151 3.4 23:28:39 10° NNW 23:32:49 63° W 23:37:04 10° S
FENGYUN 3A 3.6 23:30:17 10° SSE 23:35:43 83° ENE 23:41:06 10° N
Cosmos 2228 Rocket 3.3 23:34:30 10° S 23:38:57 74° W 23:43:23 10° N
FREGAT/IRIS 2.4 23:40:01 10° SSE 23:43:05 75° E 23:44:19 33° N
Cosmos 2360 Rocket 3.9 23:46:46 16° ESE 23:46:46 16° ESE 23:48:18 10° SE
Cosmos 1626 4.4 23:41:17 10° NW 23:44:30 27° W 23:47:47 10° SSW
Cosmos 1315 Rocket 2.8 23:40:38 10° N 23:44:47 83° E 23:49:00 10° S
Cosmos 1980 Rocket 4.1 23:40:01 10° NW 23:45:04 32° WSW 23:50:09 10° S
Cosmos 1802 Rocket 4.4 23:42:04 10° S 23:48:10 43° E 23:50:45 30° NE
Cosmos 2322 Rocket 2.1 23:44:36 10° NNW 23:50:15 82° ENE 23:55:59 10° SSE
